Location: Detroit
(42.3310°N, 83.0460°W)
Time: 12:59:17
(UTC-04:00)

deb Explorer IX - All Passes

Search period start: 21 September 2023 00:00
Search period end: 01 October 2023 00:00
Orbit: 529 x 970 km, 38.8° (Epoch: 21 September)

Date Brightness Start Highest point End Pass type
(mag) Time Alt. Az. Time Alt. Az. Time Alt. Az.
21 Sep - 04:32:16 10° S 04:36:51 20° SE 04:41:26 10° E visible
21 Sep - 06:15:30 10° SW 06:21:45 46° SSE 06:27:44 10° E visible
21 Sep - 08:00:40 10° WSW 08:07:06 64° S 08:13:01 10° E daylight
21 Sep - 09:46:24 10° W 09:52:22 48° SSW 09:57:44 10° SE daylight
21 Sep - 11:32:56 10° W 11:37:01 20° SW 11:40:47 10° S daylight
22 Sep - 03:47:33 10° S 03:51:18 16° SE 03:55:05 10° ESE visible
22 Sep - 05:29:57 10° SW 05:36:01 41° SSE 05:41:59 10° E visible
22 Sep - 07:14:50 10° WSW 07:21:19 63° S 07:27:24 10° E daylight
22 Sep - 09:00:27 10° W 09:06:41 54° SSW 09:12:20 10° ESE daylight
22 Sep - 10:46:39 10° W 10:51:31 25° SSW 10:55:57 10° SSE daylight
23 Sep - 03:03:23 10° SSE 03:05:40 12° SE 03:07:59 10° ESE visible
23 Sep - 04:44:22 10° SW 04:50:12 35° SSE 04:56:02 10° E visible
23 Sep - 06:28:55 10° WSW 06:35:25 61° S 06:41:38 10° E visible
23 Sep - 08:14:25 10° W 08:20:49 59° S 08:26:43 10° ESE daylight
23 Sep - 10:00:23 10° W 10:05:49 32° SSW 10:10:47 10° SSE daylight
24 Sep - 03:58:49 10° SSW 04:04:18 30° SSE 04:09:51 10° E visible
24 Sep - 05:42:57 10° WSW 05:49:22 57° SSE 05:55:40 10° E visible
24 Sep - 07:28:18 10° W 07:34:47 63° S 07:40:54 10° ESE daylight
24 Sep - 09:14:05 10° W 09:19:57 38° SSW 09:25:19 10° SE daylight
24 Sep - 11:01:44 10° WSW 11:04:19 13° SW 11:06:49 10° SSW daylight
25 Sep - 03:13:21 10° SSW 03:18:18 24° SSE 03:23:24 10° E visible
25 Sep - 04:56:56 10° WSW 05:03:12 52° SSE 05:09:31 10° E visible
25 Sep - 06:42:05 10° W 06:48:36 65° S 06:54:52 10° ESE visible
25 Sep - 08:27:43 10° W 08:33:52 45° SSW 08:39:36 10° SE daylight
25 Sep - 10:14:29 10° WSW 10:18:28 18° SW 10:22:14 10° S daylight
26 Sep - 02:28:00 10° S 02:32:13 19° SE 02:36:37 10° ESE visible
26 Sep - 04:10:53 10° SW 04:16:56 46° SSE 04:23:10 10° E visible
26 Sep - 05:55:47 10° WSW 06:02:16 65° S 06:08:40 10° E visible
26 Sep - 07:41:18 10° W 07:47:38 51° SSW 07:53:37 10° ESE daylight
26 Sep - 09:27:34 10° W 09:32:25 23° SSW 09:36:59 10° SSE daylight
27 Sep - 01:42:57 10° S 01:46:06 14° SE 01:49:21 10° ESE night (unlit)
27 Sep - 03:24:49 10° SW 03:30:35 40° SSE 03:36:38 10° E visible
27 Sep - 05:09:24 10° WSW 05:15:48 64° S 05:22:16 10° E visible
27 Sep - 06:54:47 10° W 07:01:12 57° SSW 07:07:25 10° ESE visible
27 Sep - 08:40:44 10° W 08:46:10 29° SSW 08:51:20 10° SSE daylight
28 Sep - 00:59:29 10° SE 00:59:53 10° SE 01:00:19 10° SE night (unlit)
28 Sep - 02:38:47 10° SW 02:44:10 33° SSE 02:49:54 10° E visible
28 Sep - 04:22:59 10° WSW 04:29:13 60° S 04:35:41 10° E visible
28 Sep - 06:08:12 10° W 06:14:38 61° S 06:21:00 10° ESE visible
28 Sep - 07:53:54 10° W 07:59:45 35° SSW 08:05:21 10° SE daylight
28 Sep - 09:42:20 10° WSW 09:44:06 11° SW 09:45:51 10° SSW daylight
29 Sep - 01:52:46 10° SSW 01:57:41 27° SSE 02:02:55 10° E night (unlit)
29 Sep - 03:36:30 10° WSW 03:42:33 55° SSE 03:48:56 10° E visible
29 Sep - 05:21:33 10° W 05:27:55 64° S 05:34:23 10° ESE visible
29 Sep - 07:07:04 10° W 07:13:08 41° SSW 07:19:04 10° SE daylight
29 Sep - 08:54:05 10° WSW 08:57:42 16° SW 09:01:13 10° S daylight
30 Sep - 01:06:53 10° SSW 01:11:07 21° SE 01:15:39 10° E night (unlit)
30 Sep - 02:50:01 10° SW 02:55:47 49° SSE 03:02:01 10° E visible
30 Sep - 04:34:49 10° W 04:41:05 65° S 04:47:33 10° E visible
30 Sep - 06:20:10 10° W 06:26:22 47° SSW 06:32:32 10° SE visible
30 Sep - 08:06:31 10° W 08:11:07 20° SW 08:15:35 10° S daylight
